Bookmark and Share
Track history (hours):
 

Orenge 7

Last reported at 2014-Apr-19 14:33 UTC. Time now 2014-Apr-20 05:58 UTC.
Position N 34°36' E 134°55'.

Length 163 m; draft 4.9 m.

Type: Passenger vessel. MMSI: 431500186.

NotesDate/timePositionNaut miles runAvg speedWind from/ knotsBaromVisibWave heightAir tempDewpointWater temp
2014-Apr-19 14:33N 34°36' E 134°55'1919.1
2014-Apr-19 13:33N 34°36' E 135°18'7 6.6
2014-Apr-19 12:33N 34°37' E 135°26'0 0.0
2014-Apr-19 11:33N 34°37' E 135°26'0 0.0
2014-Apr-19 10:33N 34°37' E 135°26'0 0.0
2014-Apr-19 09:33N 34°37' E 135°26'0 0.0
2014-Apr-19 08:33N 34°37' E 135°26'0 0.0
2014-Apr-19 07:33N 34°37' E 135°26'0 0.0
2014-Apr-19 06:33N 34°37' E 135°26'0 0.0
2014-Apr-19 05:33N 34°37' E 135°26'0 0.0
2014-Apr-19 04:09N 34°37' E 135°26'0 0.0
2014-Apr-19 03:27N 34°37' E 135°26'0 0.0
2014-Apr-19 02:33N 34°37' E 135°26'0 0.0
2014-Apr-19 01:33N 34°37' E 135°26'0 0.0
2014-Apr-19 00:27N 34°37' E 135°26'0 0.0
2014-Apr-18 23:33N 34°37' E 135°26'0 0.0
2014-Apr-18 22:33N 34°37' E 135°26'0 0.0
2014-Apr-18 21:27N 34°37' E 135°26'6 6.9
2014-Apr-18 20:33N 34°36' E 135°19'1818.2
2014-Apr-18 19:33N 34°36' E 134°56'1 0.0
2014-Apr-17 14:32N 34°37' E 134°56'1818.6
2014-Apr-17 13:33N 34°37' E 135°18'6 5.3
2014-Apr-17 12:25N 34°37' E 135°26'0 0.0
2014-Apr-17 10:31N 34°37' E 135°26'0 0.0
2014-Apr-17 09:07N 34°37' E 135°26'0 0.0
2014-Apr-17 08:31N 34°37' E 135°26'0 0.0
2014-Apr-17 07:13N 34°37' E 135°26'0 0.0
2014-Apr-17 06:31N 34°37' E 135°26'0 0.0
2014-Apr-17 05:31N 34°37' E 135°26'0 0.0
2014-Apr-17 04:25N 34°37' E 135°26'0 0.0
2014-Apr-17 03:31N 34°37' E 135°26'0 0.0
2014-Apr-17 02:31N 34°37' E 135°26'0 0.0
2014-Apr-17 01:31N 34°37' E 135°26'0 0.0
2014-Apr-17 00:31N 34°37' E 135°26'0 0.0
2014-Apr-16 22:13N 34°37' E 135°26'0 0.0
2014-Apr-16 21:31N 34°37' E 135°26'6 6.0
2014-Apr-16 20:33N 34°36' E 135°19'1717.5
2014-Apr-16 19:33N 34°37' E 134°58'15 0.5
2014-Apr-15 15:19N 34°31' E 134°40'1519.5
2014-Apr-15 14:33N 34°37' E 134°57'18 9.0
2014-Apr-15 12:34N 34°37' E 135°18'1 0.0
2014-Apr-14 19:33N 34°36' E 135°18'1818.1
2014-Apr-14 18:34N 34°36' E 134°57'12 0.4
2014-Apr-13 15:10N 34°33' E 134°43'1118.1
2014-Apr-13 14:33N 34°36' E 134°56'1818.1
2014-Apr-13 13:33N 34°36' E 135°18'7 6.5
2014-Apr-13 12:31N 34°37' E 135°26'0 0.0
2014-Apr-13 11:31N 34°37' E 135°26'0 0.0
2014-Apr-13 10:19N 34°37' E 135°26'0 0.0
2014-Apr-13 09:31N 34°37' E 135°26'0 0.0
2014-Apr-13 08:07N 34°37' E 135°26'0 0.0
2014-Apr-13 07:25N 34°37' E 135°26'0 0.0
2014-Apr-13 06:31N 34°37' E 135°26'0 0.0
2014-Apr-13 05:31N 34°37' E 135°26'0 0.0
2014-Apr-13 04:31N 34°37' E 135°26'0 0.0
2014-Apr-13 03:31N 34°37' E 135°26'0 0.0
2014-Apr-13 02:19N 34°37' E 135°26'0 0.0
2014-Apr-13 01:31N 34°37' E 135°26'0 0.0
2014-Apr-13 00:31N 34°37' E 135°26'0 0.0
2014-Apr-12 23:31N 34°37' E 135°26'0 0.0
2014-Apr-12 22:31N 34°37' E 135°26'0 0.0
2014-Apr-12 21:25N 34°37' E 135°26'6 6.6
2014-Apr-12 20:33N 34°36' E 135°19'1818.1
2014-Apr-12 19:33N 34°36' E 134°57'9 0.3
2014-Apr-11 15:08N 34°33' E 134°47'1017.7
2014-Apr-11 14:33N 34°37' E 134°58'1717.2
2014-Apr-11 13:33N 34°37' E 135°19'6 5.5
2014-Apr-11 12:33N 34°37' E 135°26'0 0.0
2014-Apr-11 11:33N 34°37' E 135°26'0 0.0
2014-Apr-11 10:33N 34°37' E 135°26'0 0.0
2014-Apr-11 09:33N 34°37' E 135°26'0 0.0
2014-Apr-11 08:27N 34°37' E 135°26'0 0.0
2014-Apr-11 07:33N 34°37' E 135°26'0 0.0
2014-Apr-11 06:33N 34°37' E 135°26'0 0.0
2014-Apr-11 05:27N 34°37' E 135°26'0 0.0
2014-Apr-11 04:33N 34°37' E 135°26'0 0.0
2014-Apr-11 03:33N 34°37' E 135°26'0 0.0
2014-Apr-11 02:33N 34°37' E 135°26'0 0.0
2014-Apr-11 01:27N 34°37' E 135°26'0 0.0
2014-Apr-11 00:27N 34°37' E 135°26'0 0.0
2014-Apr-10 23:33N 34°37' E 135°26'0 0.0
2014-Apr-10 22:33N 34°37' E 135°26'0 0.0
2014-Apr-10 21:33N 34°37' E 135°26'6 6.5
2014-Apr-10 20:33N 34°36' E 135°18'1818.0
2014-Apr-10 19:33N 34°36' E 134°56'11 0.4
2014-Apr-09 15:16N 34°33' E 134°43'1317.7
2014-Apr-09 14:34N 34°37' E 134°57'  

Dump ship's entire track history

sailing weather and tide predictions

Orenge 7 — JL6148 — position and weather